Wind_Speed
34 35 36 36 37 36 35 34 34 34 33 33 35 36 37 40 42 40 42 40 37 44 48 44 46 47 45 43 41 38 37 39 40 36 30 27 28 29 28 27 26 25 24 22 20 18 16 17 21 22 21 20 21 22 25 27 30 33 34 35 36 37 37 37 38 39 39 40 41 42 43 43 43 44 46 46 46 45 41 39 39 39 39 39 38 38
36 37 39 38 37 35 33 32 32 32 31 32 34 35 37 39 42 42 40 35 31 38 44 42 44 47 44 43 40 36 33 29 25 24 24 26 29 30 27 25 22 20 17 14 14 17 17 16 14 11 9 10 13 15 18 22 25 29 33 35 37 38 37 36 37 37 38 39 39 40 40 41 41 42 43 45 46 45 42 40 39 40 40 39 38 38
37 39 38 33 30 29 28 27 27 29 30 31 33 35 38 38 41 42 33 29 28 34 42 41 45 50 44 40 33 19 13 14 19 27 32 32 28 23 19 15 12 11 11 14 18 20 17 10 5 4 8 13 15 16 16 18 22 25 29 32 34 35 35 35 36 37 38 38 39 39 39 40 41 41 41 43 45 45 44 43 42 42 42 41 39 39
37 36 33 28 27 27 27 27 27 30 32 34 34 35 38 35 35 37 30 27 28 32 38 39 46 49 33 19 7 3 9 24 29 34 33 25 18 11 8 9 12 15 19 22 21 18 13 7 4 6 12 17 21 21 19 19 22 24 26 28 30 31 33 34 36 38 39 40 41 42 41 41 41 41 41 42 44 46 46 46 44 43 43 43 42 41
38 34 31 30 30 28 29 28 26 28 30 30 30 30 32 29 26 30 30 28 28 30 32 36 44 34 9 5 2 5 23 36 36 32 23 13 7 6 10 14 19 24 27 25 20 15 12 8 7 11 13 19 25 25 22 20 22 25 26 28 28 29 29 31 33 35 38 39 40 41 42 42 41 41 41 41 41 43 45 44 43 43 44 44 43 42
34 29 27 27 24 22 23 21 17 20 26 27 24 23 25 24 23 26 26 27 28 23 23 31 29 14 7 12 18 20 27 32 27 19 10 4 6 10 14 19 25 28 26 23 21 17 13 11 11 16 18 23 30 26 22 22 23 25 26 28 28 28 28 28 29 30 33 34 35 36 37 38 38 38 37 36 37 39 41 42 42 43 43 43 43 41
30 25 23 21 17 15 15 14 13 16 23 25 23 21 22 24 25 25 24 25 22 18 25 27 14 16 31 30 24 26 26 20 12 6 3 9 8 8 11 18 26 26 23 21 18 15 13 13 15 19 21 26 30 25 23 25 26 26 26 27 26 25 25 25 25 25 27 28 30 31 33 34 35 35 34 34 35 37 39 42 43 43 43 42 42 41
26 23 21 19 16 14 13 13 15 15 20 25 24 23 23 24 24 25 25 24 24 28 31 21 8 20 35 26 21 27 20 11 10 9 6 8 5 11 14 20 24 22 21 19 15 13 14 16 19 20 22 27 29 27 27 29 29 28 27 25 23 20 21 23 24 25 26 28 29 30 32 33 33 33 34 35 36 37 40 42 43 43 43 42 43 43
25 25 24 21 20 19 17 16 16 17 20 24 24 23 23 24 24 26 27 25 27 30 20 9 7 14 27 30 25 18 6 11 13 12 8 5 9 16 18 21 22 21 21 18 16 16 18 20 21 20 22 26 28 31 33 32 31 30 27 25 22 19 19 21 24 26 28 29 30 31 31 31 32 33 35 35 36 38 40 42 44 44 43 43 44 45
26 27 25 23 24 22 19 18 19 20 22 23 24 26 26 25 27 27 28 27 25 21 14 15 15 11 24 34 18 4 6 15 6 17 13 7 14 21 21 19 19 20 20 18 20 22 22 25 26 26 25 26 32 36 35 31 28 27 25 24 23 22 22 22 23 25 26 27 29 28 28 29 31 33 35 36 36 38 41 43 44 44 44 45 45 44
29 30 28 27 25 21 20 20 20 21 23 26 26 28 27 26 27 25 25 24 14 13 23 29 23 13 14 17 4 2 10 17 5 20 12 12 25 27 22 18 16 18 20 21 25 29 31 31 32 31 28 27 30 31 28 26 24 23 22 22 21 20 21 22 23 25 25 25 26 25 25 27 29 32 34 35 36 38 40 42 42 43 44 44 44 44
29 30 30 29 24 21 21 21 22 23 25 28 28 28 25 18 17 12 10 9 2 9 24 25 18 16 16 12 3 5 10 10 18 19 16 27 33 25 19 18 20 22 24 25 26 30 30 26 25 24 21 19 19 17 17 18 19 20 21 21 20 18 18 19 20 22 23 23 24 25 25 26 28 30 32 33 35 37 38 40 40 41 42 42 42 42
28 30 29 27 25 24 23 22 24 26 27 30 30 25 15 6 6 4 1 2 5 12 19 14 9 16 29 36 29 21 22 23 19 18 28 38 34 26 19 15 19 21 22 21 20 21 20 15 14 15 13 11 12 13 13 14 16 18 20 20 20 20 19 19 19 19 20 21 23 24 25 26 28 30 31 33 34 35 37 38 39 40 39 39 39 40
25 29 30 29 29 29 27 26 26 27 29 30 28 22 12 4 1 2 3 3 6 15 18 14 11 13 27 40 36 30 26 20 18 28 37 30 22 23 21 19 22 22 21 20 18 17 13 9 8 8 7 10 13 14 15 14 15 16 17 18 20 21 21 21 19 18 18 18 20 22 24 25 27 29 31 32 33 35 36 36 37 37 37 38 38 38
20 23 31 31 27 28 29 28 28 30 31 29 24 21 18 15 8 5 5 5 8 13 10 8 8 8 19 33 36 35 34 33 34 35 29 18 16 21 24 26 25 23 22 21 17 13 8 7 7 6 7 10 11 13 14 16 17 16 17 19 21 22 22 21 20 19 17 16 16 18 21 24 26 29 30 32 33 34 35 35 35 35 35 36 36 36
19 25 33 30 24 26 30 30 29 28 27 26 22 21 22 25 23 18 17 19 17 11 6 11 14 21 35 48 52 49 47 45 36 27 24 25 25 24 23 23 22 20 18 18 15 12 11 13 14 15 15 15 14 13 13 14 15 16 17 19 20 21 21 20 20 20 19 17 15 15 17 20 24 27 29 31 32 32 33 33 33 33 33 34 35 35
19 23 30 28 25 25 25 24 24 24 23 21 20 22 24 26 28 25 20 21 18 9 11 18 24 34 42 46 50 48 44 38 26 21 27 30 25 22 20 21 22 19 17 17 19 22 25 26 27 27 26 24 22 20 19 19 18 17 16 17 19 18 18 18 18 18 19 20 19 17 16 17 19 22 25 27 29 30 31 31 31 31 31 32 33 34
23 27 34 36 33 30 26 23 23 25 26 22 20 23 25 22 23 22 10 6 9 7 10 19 28 34 29 27 39 45 39 32 24 22 30 29 22 18 17 20 20 20 22 27 32 32 34 36 36 36 36 33 30 28 27 29 31 29 25 23 23 22 22 22 21 20 20 20 21 21 20 19 18 19 21 23 25 27 29 29 29 28 28 29 30 32
28 27 31 35 35 30 26 26 28 28 27 27 26 26 24 17 16 17 10 3 7 7 6 13 23 28 27 31 40 41 37 35 33 33 35 30 21 18 19 21 24 28 31 35 38 38 39 40 41 41 41 40 38 37 38 39 40 39 36 33 31 30 30 30 30 29 28 26 25 24 24 23 22 20 20 21 22 24 25 24 24 25 25 27 28 30
30 22 19 27 33 27 20 23 30 33 29 28 28 27 28 26 21 20 17 10 8 7 6 8 11 14 23 32 35 34 37 41 43 42 36 29 26 24 23 25 29 32 35 39 42 43 43 45 45 45 46 46 45 45 46 45 42 41 39 37 35 33 34 35 36 36 36 34 32 29 28 27 27 26 24 23 23 23 21 19 19 20 22 24 27 30
29 23 21 28 33 31 29 30 34 37 33 31 31 30 32 32 29 24 23 24 18 8 5 6 6 12 21 26 29 33 37 40 43 41 35 32 30 29 28 29 32 35 38 40 41 42 42 42 42 43 46 48 48 48 47 45 42 40 40 40 38 36 35 36 37 39 39 39 37 35 33 32 32 32 30 29 28 27 25 22 19 17 18 21 25 29
26 25 27 31 32 36 40 40 38 36 35 33 31 31 31 31 29 20 14 24 29 18 11 11 10 16 24 27 31 35 34 35 38 36 34 33 32 33 35 36 37 38 39 39 39 39 39 38 40 43 46 49 50 49 47 44 42 40 39 39 40 40 39 38 38 39 40 41 40 39 37 35 35 36 37 35 33 32 32 30 27 23 21 20 21 24
34 32 33 36 38 41 43 43 41 38 35 33 30 30 29 28 30 23 13 19 28 26 25 22 15 16 25 31 33 31 28 29 29 28 29 31 33 38 41 42 42 42 42 42 43 43 44 45 45 47 48 50 51 52 51 49 47 45 43 42 41 41 43 43 42 41 43 43 43 42 41 39 37 37 39 39 37 35 35 35 34 33 31 29 26 25
32 30 32 36 38 39 39 39 40 39 38 38 37 37 36 35 36 36 32 30 26 23 25 20 11 11 20 29 30 24 21 23 23 25 29 34 40 45 46 47 48 48 48 49 49 50 50 50 50 49 49 50 50 52 53 54 54 54 52 51 48 46 46 48 48 47 48 49 49 49 48 47 44 42 41 41 40 39 38 38 38 38 38 37 35 33
28 26 26 23 19 19 23 24 26 30 33 35 35 34 35 36 36 35 38 33 18 14 22 16 7 11 16 18 21 21 25 30 31 34 38 42 46 48 48 51 52 53 53 53 53 54 53 53 52 50 48 48 48 49 50 52 54 55 55 55 54 53 51 52 53 53 54 54 55 54 53 53 52 49 46 46 45 45 44 42 41 41 41 42 42 40
31 29 28 22 11 8 12 14 16 21 23 23 23 23 24 25 24 25 28 25 14 15 23 17 12 21 25 25 28 31 34 37 39 40 41 42 44 47 50 54 56 56 55 55 56 55 54 52 50 48 48 48 48 49 50 50 51 52 53 52 53 54 54 53 53 54 55 56 57 56 54 53 52 50 48 47 48 49 50 50 49 49 48 48 47 47
31 30 32 31 26 24 26 28 28 29 28 26 24 26 27 27 29 30 28 28 28 28 28 28 31 36 36 36 39 39 39 41 43 44 45 46 49 51 53 54 55 56 56 56 55 54 52 50 49 49 51 52 51 51 50 50 49 47 47 46 46 48 51 52 52 52 53 55 55 55 53 51 48 47 46 45 45 47 49 51 53 55 55 55 54 53
38 38 39 39 38 38 40 41 40 38 38 38 38 39 41 39 38 36 34 36 37 29 25 34 39 36 35 37 39 41 43 46 48 49 50 51 52 52 52 53 53 54 54 54 53 52 52 53 53 55 54 52 51 50 48 47 46 45 44 42 42 44 46 48 49 49 50 52 53 53 52 50 47 46 46 45 45 46 47 49 52 54 56 57 57 57
36 39 41 41 41 41 43 44 45 44 42 41 40 41 42 41 40 40 41 42 39 31 30 38 40 38 40 42 44 47 49 49 48 48 48 48 49 49 50 50 51 52 52 53 53 54 55 55 56 55 52 50 49 47 46 44 43 42 41 41 40 41 42 43 45 47 49 51 52 51 50 49 48 47 47 46 46 46 47 49 51 52 53 54 55 55
31 34 35 34 35 37 37 38 39 38 37 36 34 32 33 36 40 42 43 42 42 41 42 44 44 46 47 46 47 48 46 45 44 43 44 44 45 46 47 48 49 49 51 53 55 55 55 54 53 51 50 48 47 46 45 44 42 40 38 36 36 37 38 40 43 45 48 50 51 50 49 48 47 48 48 47 47 46 47 48 49 50 50 50 51 52
29 31 31 31 31 32 33 35 33 32 34 34 33 33 35 38 41 43 44 46 47 47 47 47 46 47 47 44 42 41 39 39 39 39 40 41 41 43 44 44 46 48 50 52 53 53 52 51 51 51 51 50 48 47 46 45 44 42 40 39 38 37 38 39 41 43 44 47 48 48 49 49 49 49 49 50 50 49 48 48 49 50 50 50 50 51
32 33 35 36 34 36 42 40 35 36 38 38 40 44 47 48 48 48 48 48 47 48 49 47 44 44 44 41 37 34 33 34 35 36 37 38 39 41 42 43 46 47 48 49 49 49 49 49 50 50 51 51 51 50 50 49 49 48 47 46 44 43 41 40 41 41 42 43 45 47 50 52 54 54 53 53 53 52 51 51 51 52 53 54 55 56
39 37 36 32 27 32 37 35 32 30 25 28 40 46 46 47 47 47 47 46 46 46 47 45 44 42 39 34 31 30 29 30 31 32 33 35 37 39 40 42 43 43 43 43 44 44 45 46 47 49 50 52 53 53 54 55 55 56 56 55 53 52 49 47 47 46 45 44 44 44 46 49 53 55 55 54 53 53 53 53 54 56 57 58 59 60
38 35 34 30 24 26 30 31 29 20 14 27 45 48 45 46 47 45 45 45 42 39 39 39 38 36 32 30 29 28 27 28 29 29 30 32 33 33 34 35 36 37 38 39 41 43 45 48 50 52 54 55 56 57 58 59 59 60 61 60 59 58 57 56 55 54 53 52 49 47 46 45 47 49 50 52 52 53 53 53 55 56 57 58 58 58
38 38 37 34 29 28 31 29 19 10 17 33 42 42 43 42 39 37 37 37 36 35 35 34 33 31 30 29 27 26 26 27 27 27 27 27 28 29 31 33 36 39 41 43 46 48 50 53 55 57 59 60 60 59 59 58 59 60 60 60 60 60 60 60 59 58 58 57 56 54 52 50 48 46 46 48 49 51 53 53 53 52 52 54 55 55
45 46 43 40 35 30 25 21 15 15 25 33 33 37 41 37 33 33 36 38 37 34 30 27 26 27 27 24 22 21 23 24 24 25 26 29 32 34 36 39 42 44 46 48 50 51 52 54 55 57 59 59 60 59 58 57 56 56 57 56 57 57 58 58 59 59 58 57 56 55 55 55 54 50 48 47 47 48 50 51 51 50 50 50 51 53
44 45 44 41 36 30 25 25 27 27 30 34 37 39 38 35 35 35 33 31 28 23 20 19 20 21 21 19 19 22 24 26 28 28 31 34 36 38 41 42 44 45 47 48 49 50 51 52 53 54 55 57 58 58 57 57 56 56 55 54 53 53 53 54 54 55 57 57 55 54 53 54 55 55 53 51 50 50 50 49 50 50 51 51 50 51
38 39 40 36 30 28 24 20 18 17 17 22 27 25 23 25 26 22 21 23 22 19 18 17 16 17 18 20 24 27 29 32 34 35 35 36 38 40 41 42 42 43 44 45 46 47 47 48 50 51 52 54 55 55 56 57 58 58 57 55 52 51 50 50 49 50 52 54 54 53 51 50 51 52 53 53 53 53 53 52 50 49 50 52 52 52
28 29 32 30 27 25 21 12 9 11 12 13 15 15 15 17 18 15 15 19 19 15 13 12 14 18 22 26 28 29 30 33 37 38 36 36 37 38 39 40 40 41 41 42 43 44 45 47 48 49 50 52 53 53 54 56 57 58 58 57 55 52 50 49 48 48 49 50 51 51 50 49 48 48 49 50 51 52 53 54 52 50 49 50 52 53
22 22 24 26 27 28 27 21 18 19 17 13 12 14 16 20 20 15 10 10 11 10 10 17 21 24 26 27 28 30 31 33 36 36 35 35 36 36 37 38 39 40 42 43 43 45 46 47 48 50 51 52 52 53 54 55 56 56 57 57 57 56 54 53 52 51 51 50 50 50 49 49 48 47 47 47 48 49 50 52 54 53 51 50 50 52
18 19 19 23 27 29 30 28 25 24 24 22 20 22 25 26 23 17 16 17 16 15 19 25 28 27 28 28 29 31 33 34 35 36 35 35 36 37 38 39 41 43 44 45 46 46 47 48 48 50 51 52 52 53 54 55 55 56 57 58 58 58 58 59 58 57 56 55 53 52 52 51 51 50 49 47 47 48 48 48 51 53 52 51 50 50
19 17 18 23 27 29 31 30 25 24 27 28 26 27 29 27 23 22 24 23 21 22 28 31 31 30 30 30 31 33 34 35 36 36 36 36 38 39 40 41 43 44 45 47 48 48 49 50 51 51 51 51 51 52 53 55 56 57 59 60 60 60 62 63 64 63 63 61 60 58 57 56 55 55 53 50 49 49 49 48 48 50 52 52 51 51
21 18 19 24 24 24 25 22 15 17 24 26 24 23 24 23 22 24 26 27 29 34 37 36 33 31 31 32 32 33 35 36 36 37 38 39 40 41 43 44 46 47 48 49 50 50 52 54 53 53 53 52 52 53 54 56 58 59 61 62 62 63 65 67 67 68 67 66 65 64 63 62 61 59 58 56 53 52 52 50 49 49 50 51 52 53
23 23 26 29 26 22 22 20 17 20 25 26 24 23 23 25 28 31 33 35 37 36 35 34 33 31 31 32 33 35 36 37 37 38 39 40 41 43 45 47 49 50 52 52 52 53 55 56 56 56 55 54 54 55 56 58 60 62 63 64 64 66 68 70 70 71 71 70 69 68 67 67 66 64 63 61 59 57 55 53 52 51 50 50 52 53
27 27 27 29 28 25 27 30 30 29 29 30 31 32 33 35 36 36 36 37 35 32 31 32 32 32 32 33 35 36 37 37 38 39 40 42 44 45 47 50 51 53 54 54 55 56 56 57 58 57 57 57 57 57 59 60 62 65 66 66 68 69 71 73 74 74 74 74 73 72 70 70 70 69 68 66 64 63 60 57 55 54 53 51 51 53
33 30 29 31 32 32 36 41 40 38 39 40 40 40 39 38 35 34 35 35 32 30 31 32 34 34 34 35 37 37 37 38 39 40 42 44 45 47 49 52 53 54 55 56 56 56 56 57 58 59 60 60 60 60 61 63 65 68 69 70 71 73 75 76 77 78 78 78 77 76 75 74 73 72 72 70 69 67 65 62 59 57 56 54 53 53
37 35 35 37 38 38 42 46 44 42 44 43 40 39 36 33 32 32 32 32 30 30 32 35 36 36 36 36 37 38 38 39 40 42 43 45 47 49 51 53 54 55 56 57 56 56 57 58 59 60 62 63 63 64 65 66 68 69 71 73 76 77 79 80 80 81 81 81 81 80 79 78 77 75 74 73 71 70 69 67 65 62 59 56 55 55
39 37 36 38 38 39 44 47 44 42 44 43 40 38 35 33 32 32 31 32 32 32 34 36 36 37 37 36 37 38 39 40 41 44 45 46 48 50 52 54 55 56 56 56 56 57 58 60 61 63 65 66 67 67 68 69 70 72 75 78 80 82 83 83 83 84 84 83 83 83 82 81 80 78 76 74 72 71 70 68 67 66 63 58 56 56
39 39 39 39 40 43 46 46 43 42 43 41 38 36 35 34 33 32 32 33 33 33 34 35 36 37 37 37 37 38 39 40 42 45 46 48 50 52 53 54 55 55 56 56 57 58 60 62 64 66 68 69 69 70 72 74 75 78 81 84 85 86 86 86 86 86 86 85 85 85 84 83 82 81 79 77 74 72 70 69 68 68 66 61 57 56
39 41 41 38 41 46 46 44 41 41 43 41 36 34 33 33 34 34 33 33 33 34 34 34 34 35 36 36 37 39 40 41 43 45 48 50 51 52 53 54 54 55 56 57 59 61 63 65 66 68 69 71 73 75 78 80 82 84 87 88 90 90 89 88 88 87 86 85 84 84 83 83 83 82 81 80 77 74 71 68 67 67 67 64 59 57
42 44 41 38 42 47 47 43 41 43 44 41 36 34 34 35 35 35 33 33 33 33 34 34 35 35 35 36 37 39 40 42 44 47 49 50 51 52 52 53 55 57 58 60 62 64 65 66 67 70 72 75 78 80 83 85 86 88 89 89 90 89 88 87 86 85 83 82 82 81 80 79 79 79 78 77 76 74 71 68 65 64 64 64 61 59
Wind_Direction
273 270 268 271 276 281 286 290 290 291 291 288 287 286 285 285 288 295 300 304 307 296 291 293 294 296 297 295 296 299 300 299 300 303 305 307 308 308 308 309 308 302 298 300 302 308 310 294 278 270 268 271 271 269 267 266 264 263 262 262 264 265 264 261 257 253 251 252 253 254 255 258 260 262 262 263 264 266 267 268 266 264 262 260 258 257
272 268 271 279 284 288 287 286 286 287 288 287 286 285 284 286 291 298 302 305 306 294 293 300 299 298 298 297 301 303 303 304 305 312 316 315 314 314 314 310 304 298 294 300 311 313 306 291 282 283 290 297 293 284 275 271 271 268 266 265 266 267 266 264 260 256 254 255 256 256 258 259 260 261 262 262 262 263 265 265 263 260 259 257 256 256
270 270 279 287 287 285 282 283 284 285 286 285 284 284 284 290 296 299 304 310 307 298 300 305 301 300 302 304 309 311 313 316 312 314 316 317 320 320 318 314 315 318 312 317 317 306 296 282 271 309 331 329 321 308 290 277 276 276 273 271 269 269 268 265 262 258 256 256 257 257 257 257 258 260 260 259 257 258 260 261 260 258 256 255 255 255
270 276 286 286 281 280 279 281 283 284 284 283 284 284 286 295 298 297 306 312 305 303 305 305 302 305 313 321 338 97 324 318 315 318 322 324 328 334 344 356 359 347 332 329 320 297 280 261 255 305 325 327 322 313 301 285 277 278 279 278 275 273 270 267 264 261 258 257 257 258 258 259 260 261 259 256 254 256 258 259 260 259 256 254 255 255
274 281 285 282 280 280 280 281 284 285 284 284 286 287 291 302 303 300 308 310 305 305 304 307 310 311 333 47 61 268 308 317 320 326 335 338 349 37 29 14 3 350 337 326 310 287 266 248 270 302 312 320 320 310 299 290 279 276 277 279 279 277 274 270 266 264 262 261 260 260 261 262 263 264 263 262 261 261 261 261 262 261 258 256 256 257
281 287 288 285 284 281 280 283 290 289 284 286 291 293 296 305 306 303 308 308 307 308 306 316 322 308 277 300 299 301 314 325 333 340 356 61 79 57 26 1 352 346 333 312 301 296 277 257 285 304 301 310 317 307 291 289 283 278 277 277 279 279 278 274 268 266 265 265 265 264 264 265 266 266 268 270 270 269 266 265 264 261 259 258 257 258
286 292 289 286 285 279 275 283 301 298 286 286 293 297 298 301 301 301 304 304 304 303 303 312 315 287 295 301 304 314 327 341 2 22 90 124 99 39 3 341 336 332 319 305 305 308 289 273 287 296 295 303 309 301 289 290 287 284 283 281 280 279 277 272 267 264 265 267 270 272 272 270 268 268 267 264 262 261 260 259 257 257 257 256 256 257
286 287 283 283 280 272 270 288 309 305 288 286 292 296 293 293 296 298 300 299 298 301 302 307 299 285 292 296 307 319 335 22 76 101 110 110 55 343 331 326 322 318 309 300 296 297 293 292 290 287 290 298 300 295 292 293 291 289 289 288 286 283 278 270 265 264 265 268 272 276 276 273 270 268 264 257 252 250 250 250 251 252 253 252 252 254
280 277 276 277 272 270 276 292 305 302 292 290 292 290 287 289 290 290 293 293 298 303 302 300 299 281 281 288 303 319 4 92 85 63 37 348 323 323 324 324 315 306 302 297 288 284 283 289 295 292 288 289 289 289 291 291 291 291 290 293 293 291 287 280 274 273 273 274 276 277 276 271 269 265 260 256 251 247 244 244 246 248 249 250 251 253
279 276 275 272 269 271 280 292 298 297 295 292 289 286 284 285 285 285 288 287 293 296 278 273 280 268 284 293 300 326 136 137 76 2 358 328 327 330 325 321 309 295 294 298 299 297 288 284 290 293 288 281 281 287 289 287 288 289 288 292 298 298 297 294 290 287 285 284 281 277 272 268 267 264 260 256 252 248 245 245 246 247 248 250 252 254
275 274 272 268 268 272 281 289 292 293 291 288 284 283 284 286 286 285 281 281 289 280 272 278 274 253 279 299 305 176 162 157 287 331 342 331 334 333 323 313 303 289 283 286 292 294 292 286 285 286 284 281 284 289 289 284 283 284 282 287 294 296 295 295 295 294 292 288 281 274 269 268 266 263 260 257 255 252 249 248 248 248 249 251 252 254
272 271 270 270 270 272 279 283 284 286 284 281 278 278 284 289 289 287 272 268 240 264 280 286 272 239 240 264 276 189 192 232 297 319 327 325 329 328 319 304 291 287 283 280 279 277 275 275 274 273 277 289 296 297 294 290 289 288 286 286 286 283 282 284 287 288 288 284 277 271 268 267 263 258 256 255 255 255 254 253 252 252 252 253 254 255
269 268 268 269 268 269 275 277 278 280 277 273 269 266 273 290 294 291 209 219 212 252 279 285 239 224 245 263 271 264 267 282 293 309 317 321 322 314 305 292 282 285 283 275 264 255 251 251 255 257 274 310 323 320 315 306 302 300 295 290 283 276 271 272 274 276 278 277 274 271 267 264 260 255 252 251 251 252 254 256 257 257 257 257 258 259
273 272 267 264 265 267 270 269 272 276 275 269 260 252 242 208 258 273 245 270 261 261 270 260 231 234 258 270 277 276 279 282 285 304 314 322 321 301 286 281 280 277 274 264 244 233 231 236 246 255 296 339 344 340 334 323 316 309 298 290 282 276 272 270 270 271 272 273 272 270 266 262 259 256 254 253 252 252 253 255 257 259 260 260 261 260
272 273 272 270 267 268 270 273 277 277 271 265 260 255 247 240 239 244 240 246 268 275 266 226 215 234 261 273 280 281 282 284 293 306 313 318 310 292 283 280 272 258 255 249 230 225 234 248 267 288 315 334 341 343 341 334 326 316 307 297 286 280 278 277 275 272 271 272 274 274 270 265 262 260 258 257 257 257 257 257 257 258 260 262 261 258
267 270 277 277 271 272 276 279 278 268 258 256 253 244 245 251 253 251 250 251 261 280 255 224 239 254 264 273 278 282 285 288 297 308 307 306 304 294 284 267 248 235 233 228 226 247 270 281 291 297 299 305 311 316 318 321 320 314 310 301 288 282 279 279 279 276 272 269 272 278 279 274 269 265 262 259 257 257 257 257 258 259 261 260 257 254
264 266 274 276 275 278 279 275 264 250 245 246 239 239 253 262 258 254 256 257 257 265 253 245 255 264 270 277 278 280 286 290 298 305 302 304 303 294 276 246 228 223 231 249 269 280 286 292 294 293 290 290 292 293 293 298 304 302 298 293 287 283 281 279 280 280 278 274 272 274 280 282 279 272 267 262 258 255 253 253 256 258 259 259 257 253
264 266 271 275 278 277 271 265 255 245 242 239 236 252 265 263 253 249 253 267 249 251 254 241 251 264 269 275 277 279 285 292 299 299 297 299 296 283 259 236 234 246 260 277 288 290 291 292 293 293 291 289 288 289 291 296 301 300 296 292 287 284 284 283 284 286 285 283 281 278 278 281 282 278 272 267 262 258 255 255 256 256 256 257 257 255
263 268 271 271 273 273 266 259 255 251 246 244 248 254 255 250 246 237 226 250 248 251 262 229 238 253 255 263 277 282 284 289 291 291 292 293 288 274 257 249 258 268 272 279 289 294 296 295 294 294 293 292 291 293 296 300 303 304 303 300 294 290 288 285 285 286 286 285 284 282 280 278 276 274 272 268 263 260 259 259 259 257 256 256 255 254
263 268 268 265 267 270 263 250 251 254 252 249 249 248 246 247 249 242 232 233 236 245 262 233 219 237 252 266 277 278 276 280 283 286 289 290 286 280 271 266 271 276 277 281 286 291 294 294 293 292 293 295 295 296 300 303 305 305 304 302 299 294 292 288 285 284 284 283 282 281 282 281 277 273 270 268 265 260 259 261 264 265 265 262 257 252
271 269 264 267 268 266 262 257 258 262 262 259 255 252 252 249 250 253 246 241 244 248 256 251 240 250 260 265 265 263 268 274 277 280 285 288 290 288 286 286 288 289 288 287 286 286 284 283 283 286 291 295 298 300 301 303 304 304 303 301 299 295 293 290 286 284 284 284 283 281 280 280 281 279 273 269 266 261 258 257 259 266 270 267 263 258
277 274 268 269 265 261 263 267 269 271 270 268 262 258 259 256 251 253 249 245 246 245 246 256 264 261 260 260 259 258 260 263 266 272 280 288 295 297 298 299 297 295 293 291 290 289 286 284 284 286 288 290 293 296 299 300 300 300 299 298 297 296 294 292 289 287 286 286 286 285 282 279 278 279 277 273 268 263 259 256 253 252 255 258 262 264
275 274 271 268 264 264 268 271 272 271 268 265 262 259 261 259 251 246 247 252 252 252 255 258 261 258 252 251 252 252 251 256 264 273 282 291 297 299 301 301 300 300 299 297 297 297 297 296 295 293 291 290 290 291 293 295 295 296 296 295 294 293 293 292 290 288 287 286 286 285 284 281 276 274 273 271 268 264 261 259 255 250 247 247 250 254
268 263 262 266 269 270 272 273 271 268 266 263 262 262 261 259 256 254 255 258 259 257 257 258 259 243 235 239 245 254 268 277 281 283 286 291 294 296 298 299 300 301 299 298 298 298 298 298 297 295 294 292 291 290 290 290 291 293 294 294 293 292 291 290 289 287 285 284 283 282 282 281 278 274 269 266 265 264 263 261 258 255 250 247 246 246
267 263 263 267 275 277 275 275 271 266 265 262 261 261 260 259 260 260 260 262 264 254 248 248 250 239 235 244 257 274 287 286 286 286 286 288 291 293 295 296 298 299 297 297 297 296 296 295 295 296 295 295 294 293 292 291 291 291 292 293 292 291 290 289 288 287 286 283 282 281 280 279 278 277 273 267 264 263 263 262 261 260 258 255 251 249
268 264 262 261 261 267 268 269 269 269 266 258 253 251 248 248 254 264 269 269 272 266 254 249 263 265 265 273 277 279 281 282 285 287 286 286 288 289 291 294 295 296 296 296 296 296 296 295 296 297 298 299 299 299 298 296 295 293 293 293 292 291 290 289 288 288 286 285 284 282 281 279 277 277 275 271 268 266 265 263 263 263 263 263 261 258
272 269 266 264 263 264 268 270 272 273 273 270 267 262 258 262 270 277 275 265 266 273 268 265 273 275 276 278 278 278 280 282 285 285 284 285 285 286 288 290 291 292 293 294 295 296 295 295 296 296 297 298 299 299 299 299 298 296 294 291 289 289 289 290 289 287 285 285 284 283 282 279 277 275 273 271 269 267 265 263 262 262 264 265 266 265
274 274 272 270 269 269 271 272 272 273 276 277 277 276 275 278 280 278 270 264 268 273 270 271 275 275 275 276 277 279 282 284 285 284 284 284 284 285 286 287 288 290 291 292 292 292 293 294 295 297 297 298 298 298 298 298 297 296 294 291 287 285 285 286 286 284 283 283 282 282 281 279 277 274 272 270 268 266 264 263 262 261 261 262 263 264
273 273 273 272 272 272 272 274 275 275 277 277 277 278 279 279 279 274 270 270 272 269 268 274 276 274 275 278 280 283 284 284 284 283 283 285 286 286 287 287 288 289 289 290 291 292 294 295 297 298 299 299 298 298 297 296 295 294 292 289 286 283 280 279 279 280 282 282 281 281 280 279 278 276 274 271 269 266 264 263 263 261 260 260 260 261
274 273 274 273 272 273 273 275 275 275 276 277 276 276 275 273 272 271 271 272 271 268 270 275 276 277 280 281 281 282 282 282 282 282 284 285 285 286 287 287 288 287 288 290 292 294 296 297 299 300 301 301 300 298 297 296 295 294 292 290 288 285 281 278 277 276 277 278 279 280 280 279 278 277 276 275 272 269 266 263 263 262 261 259 259 260
272 271 273 275 274 273 272 272 273 276 279 280 278 276 273 270 268 269 270 272 273 273 275 275 276 278 280 280 279 278 277 278 280 281 283 284 284 285 285 285 284 285 286 289 291 292 294 296 297 298 299 299 300 300 299 297 296 295 294 294 293 290 288 285 281 278 275 275 276 278 280 280 280 279 277 276 275 274 271 268 265 263 262 261 261 262
274 273 275 278 276 274 276 277 276 277 277 275 273 273 272 271 270 271 272 273 275 277 278 276 274 275 278 278 276 274 273 274 276 278 279 280 281 281 281 281 282 283 285 287 288 289 290 292 293 295 296 297 299 300 301 300 299 298 297 297 296 294 291 289 288 286 284 282 279 278 278 280 281 281 279 277 276 275 274 273 271 270 267 266 266 267
278 272 272 274 272 272 277 279 276 276 276 270 269 271 273 274 274 275 276 278 279 277 274 272 272 274 276 276 274 272 271 271 272 273 274 274 275 276 277 278 279 281 283 285 286 287 289 292 294 296 298 299 300 301 303 303 302 302 302 303 302 300 298 294 292 291 290 289 286 282 280 279 279 279 279 278 276 276 276 276 277 277 276 274 272 271
273 268 269 272 270 272 278 279 278 276 268 268 272 275 278 278 277 278 279 280 279 274 270 270 272 274 274 273 271 269 268 268 269 269 269 271 272 274 277 280 282 285 287 290 292 294 295 297 299 301 303 304 305 305 306 306 305 304 305 306 306 305 303 300 298 295 293 292 291 288 286 284 282 280 279 278 277 277 278 279 280 280 279 278 276 274
268 272 277 276 272 273 277 280 280 270 266 274 279 280 280 279 278 276 275 274 274 274 273 274 273 273 271 269 267 265 265 267 267 269 273 277 280 283 287 292 295 297 298 300 301 301 302 303 303 304 304 306 307 308 309 309 308 307 306 307 307 306 304 303 301 299 297 296 295 292 290 287 285 284 282 281 279 277 277 278 278 278 277 275 274 273
267 273 277 277 274 274 272 264 257 266 276 278 279 279 279 279 278 276 276 276 278 277 275 272 270 267 264 263 267 272 275 275 274 280 292 298 298 299 299 301 303 304 305 305 306 306 307 307 307 306 306 306 307 309 310 311 310 309 308 308 307 306 305 303 302 300 299 297 296 294 292 289 286 283 282 282 281 280 279 277 276 275 275 275 273 273
266 269 271 272 269 267 262 258 263 272 276 274 274 275 276 275 276 276 275 276 278 277 271 266 261 259 259 269 284 292 295 292 287 292 304 308 307 307 307 307 308 308 308 308 308 308 308 308 309 308 308 307 307 309 310 310 310 310 310 310 309 308 306 305 302 300 298 296 295 294 293 291 289 285 282 280 279 280 280 280 278 276 275 275 275 275
270 268 267 263 260 259 260 264 271 274 275 276 277 277 277 274 271 267 267 275 279 277 272 264 259 265 279 293 300 303 305 303 298 300 308 312 311 310 310 310 310 309 308 308 307 307 306 307 307 307 307 308 307 308 309 309 309 309 309 310 310 310 308 307 304 301 297 296 296 295 293 291 289 287 285 281 279 277 278 279 279 278 276 275 275 276
268 265 261 255 251 253 253 252 255 259 267 278 277 276 276 270 265 267 280 286 280 269 269 272 276 289 300 304 305 307 307 305 303 304 308 310 309 309 309 308 308 307 307 308 308 308 308 308 308 308 308 309 309 309 308 307 307 307 308 309 309 309 309 307 305 302 299 296 295 295 295 293 290 287 285 282 279 276 274 274 275 276 276 276 275 275
267 264 256 248 246 248 247 249 254 257 263 269 266 264 267 270 276 284 289 286 272 262 285 300 301 302 304 304 304 304 304 304 304 306 306 306 305 306 307 307 308 308 309 309 309 309 309 309 309 309 309 310 309 308 307 307 306 306 307 308 308 308 308 306 303 301 300 298 295 294 295 295 293 289 285 282 279 276 273 271 271 272 272 273 274 275
268 261 250 244 247 248 245 248 254 256 259 263 264 265 269 272 275 272 267 271 274 277 294 304 304 303 303 302 301 301 301 302 302 303 304 303 302 303 305 307 308 308 309 308 307 307 307 306 306 307 308 308 307 306 305 304 304 305 306 306 306 306 306 304 303 301 300 298 297 295 294 294 294 292 288 284 280 277 273 271 270 270 270 270 270 271
267 262 254 249 250 249 246 250 257 261 263 266 268 266 266 264 262 264 271 279 282 287 297 302 301 301 302 300 298 299 300 300 300 301 301 300 300 301 304 304 305 306 306 306 306 306 305 304 304 304 305 305 304 303 302 301 301 302 303 303 304 304 303 301 301 300 299 298 297 296 294 293 293 292 290 287 283 279 274 271 269 268 269 269 268 268
266 265 262 257 255 251 247 247 253 261 266 270 269 261 258 260 268 278 287 291 289 291 295 298 297 298 297 295 296 298 299 298 299 299 299 299 299 301 302 303 304 305 306 305 305 305 304 303 303 303 303 302 301 301 300 298 298 298 299 300 301 301 299 299 298 297 297 297 296 295 295 293 292 290 289 288 286 282 277 272 269 268 267 268 267 266
261 259 261 262 259 251 243 245 255 266 272 275 273 267 267 275 284 291 294 294 291 291 292 293 294 293 291 291 294 296 297 297 297 297 297 298 299 301 303 305 305 305 305 304 304 304 303 303 303 302 301 301 301 300 299 297 296 296 296 297 298 297 296 296 295 295 295 295 294 294 293 292 291 290 289 288 287 285 280 275 272 269 267 267 267 265
263 263 266 268 264 255 253 258 264 268 270 271 273 276 279 283 286 289 293 294 293 292 292 293 294 291 288 290 293 295 295 296 296 297 298 299 301 303 305 305 304 303 303 304 304 304 303 302 302 301 300 300 300 299 297 296 295 295 295 296 296 295 295 294 294 294 294 294 293 293 292 291 290 289 288 287 286 285 282 278 275 271 268 267 266 264
269 268 267 267 267 265 264 265 266 268 270 272 276 281 284 286 288 292 294 296 295 291 291 294 295 293 290 290 293 294 295 297 298 299 300 301 303 305 305 303 302 302 303 303 304 303 302 301 300 299 299 298 298 297 296 295 295 296 296 296 296 295 294 293 293 293 293 293 292 292 291 289 288 287 286 285 284 283 282 280 277 273 269 267 265 264
276 274 270 269 270 270 271 274 277 278 279 281 284 286 287 289 293 296 296 296 293 289 289 293 294 293 291 290 292 294 295 298 299 300 301 302 303 304 303 302 302 303 303 304 303 302 301 300 299 298 297 297 297 297 296 296 296 297 297 296 295 294 293 292 292 292 291 291 290 289 289 288 287 285 284 283 281 280 279 278 277 274 270 267 265 264
280 280 276 275 274 271 274 282 286 284 285 288 290 291 293 295 296 296 294 294 293 290 289 291 291 291 291 291 293 294 296 298 300 300 300 301 302 303 303 303 303 304 304 303 302 300 300 299 299 298 298 298 299 299 298 297 297 297 296 295 294 293 292 291 291 290 289 289 288 287 286 285 284 283 282 280 279 278 276 275 274 273 271 268 265 264
280 277 275 277 279 277 279 286 289 287 288 294 296 296 298 298 295 293 292 292 291 288 287 288 289 289 291 292 294 295 297 299 299 299 300 302 303 303 303 303 303 303 302 302 301 300 300 300 300 300 300 301 301 300 299 298 297 296 296 294 293 292 291 290 289 288 287 286 286 285 284 283 282 281 280 278 277 275 274 273 272 271 270 267 265 264
272 272 274 274 277 280 286 293 295 291 291 297 300 299 298 296 293 292 291 290 288 286 286 287 287 289 291 293 295 296 297 299 299 299 299 301 302 302 302 302 302 302 302 302 302 302 302 302 302 302 302 302 301 300 299 298 297 296 295 294 293 292 291 290 289 288 287 286 285 284 284 283 282 280 279 278 277 275 273 271 269 269 268 266 264 263
273 276 278 275 276 283 291 297 296 291 291 296 299 298 297 297 295 294 292 290 289 288 287 287 287 289 292 294 295 296 297 298 298 298 300 301 302 302 303 303 303 303 304 304 304 304 304 303 303 303 303 302 302 301 300 298 297 296 295 294 294 293 292 292 290 289 288 288 287 286 284 283 282 281 279 277 276 275 273 270 267 265 264 264 263 262
Height
3132 3129 3129 3131 3131 3132 3134 3134 3131 3129 3129 3126 3125 3123 3121 3118 3116 3118 3117 3118 3119 3107 3100 3103 3098 3095 3096 3097 3100 3102 3103 3102 3099 3099 3099 3099 3098 3097 3097 3097 3098 3098 3097 3098 3097 3096 3094 3091 3089 3088 3088 3089 3089 3089 3088 3088 3088 3087 3087 3087 3088 3088 3088 3088 3088 3089 3089 3090 3091 3092 3093 3094 3095 3095 3096 3096 3097 3098 3099 3101 3101 3101 3102 3102 3103 3104
3127 3125 3125 3128 3129 3131 3131 3130 3129 3127 3126 3124 3122 3119 3117 3117 3112 3114 3115 3114 3115 3104 3095 3099 3094 3090 3092 3092 3095 3098 3098 3098 3097 3096 3095 3096 3096 3095 3094 3094 3093 3094 3094 3094 3093 3092 3090 3088 3087 3087 3088 3088 3087 3087 3086 3085 3085 3084 3084 3084 3084 3083 3083 3084 3085 3085 3085 3086 3086 3087 3089 3090 3090 3091 3091 3092 3093 3093 3095 3095 3095 3095 3096 3097 3098 3099
3122 3120 3123 3127 3127 3127 3126 3126 3126 3125 3124 3122 3120 3117 3114 3114 3110 3108 3112 3111 3110 3102 3094 3094 3088 3084 3088 3088 3089 3092 3093 3095 3094 3094 3093 3092 3092 3091 3090 3090 3089 3090 3090 3090 3090 3089 3087 3086 3086 3086 3086 3086 3086 3085 3084 3083 3082 3081 3080 3080 3080 3080 3080 3080 3080 3081 3081 3082 3082 3082 3084 3084 3084 3085 3086 3086 3087 3088 3089 3089 3089 3090 3091 3092 3093 3094
3117 3118 3122 3124 3123 3123 3122 3123 3124 3121 3121 3119 3118 3116 3111 3112 3110 3105 3107 3108 3106 3101 3095 3091 3083 3079 3083 3082 3084 3087 3089 3091 3091 3090 3089 3087 3087 3087 3087 3087 3087 3087 3086 3087 3088 3087 3085 3084 3084 3084 3083 3083 3083 3082 3081 3080 3079 3078 3077 3076 3076 3076 3076 3076 3076 3076 3076 3076 3077 3077 3078 3078 3079 3080 3080 3081 3082 3083 3082 3083 3084 3085 3086 3087 3088 3089
3114 3117 3119 3119 3119 3119 3119 3120 3121 3118 3117 3116 3116 3115 3110 3110 3110 3105 3104 3103 3102 3101 3096 3089 3080 3075 3079 3080 3082 3085 3086 3087 3086 3085 3085 3084 3084 3085 3085 3086 3085 3084 3084 3085 3085 3084 3083 3083 3082 3081 3080 3080 3080 3079 3078 3077 3076 3075 3074 3073 3072 3072 3071 3072 3071 3071 3071 3071 3072 3072 3073 3073 3074 3074 3075 3076 3077 3077 3077 3079 3080 3081 3082 3083 3084 3085
3112 3116 3116 3115 3115 3116 3116 3117 3118 3116 3113 3113 3114 3113 3109 3108 3107 3105 3104 3100 3097 3097 3096 3093 3085 3073 3073 3079 3080 3081 3083 3082 3082 3081 3082 3083 3082 3083 3084 3084 3083 3083 3083 3083 3082 3081 3081 3080 3080 3078 3077 3077 3076 3075 3074 3073 3072 3071 3070 3069 3068 3067 3067 3067 3067 3067 3067 3067 3067 3068 3068 3068 3069 3069 3071 3072 3073 3073 3074 3076 3077 3077 3078 3079 3080 3081
3110 3114 3113 3112 3112 3113 3114 3114 3115 3114 3112 3111 3111 3111 3109 3107 3105 3103 3103 3100 3096 3095 3093 3097 3096 3078 3066 3072 3076 3077 3079 3078 3078 3078 3078 3080 3081 3081 3083 3083 3082 3083 3082 3081 3080 3079 3078 3077 3076 3075 3073 3073 3073 3072 3070 3069 3068 3067 3066 3065 3064 3064 3063 3063 3063 3063 3064 3064 3064 3064 3064 3064 3064 3065 3066 3068 3069 3070 3071 3072 3073 3073 3074 3074 3075 3076
3109 3111 3110 3111 3110 3110 3111 3111 3112 3112 3110 3108 3108 3109 3108 3106 3105 3102 3101 3100 3096 3093 3091 3093 3098 3086 3065 3065 3072 3074 3076 3076 3075 3077 3078 3079 3081 3081 3082 3082 3081 3080 3079 3078 3078 3077 3075 3073 3072 3070 3069 3069 3069 3067 3066 3066 3065 3064 3063 3062 3062 3061 3061 3060 3060 3060 3060 3060 3060 3060 3060 3060 3060 3061 3061 3062 3063 3065 3066 3067 3068 3068 3069 3069 3070 3070
3108 3107 3108 3108 3108 3108 3108 3108 3108 3108 3107 3105 3106 3106 3105 3105 3104 3102 3100 3099 3096 3093 3089 3088 3095 3090 3068 3061 3070 3072 3074 3075 3073 3075 3078 3079 3080 3081 3082 3081 3080 3078 3076 3075 3074 3073 3072 3070 3068 3066 3066 3067 3065 3062 3061 3061 3060 3060 3060 3060 3059 3059 3058 3058 3057 3057 3057 3057 3056 3056 3056 3056 3056 3056 3057 3057 3058 3059 3060 3061 3062 3063 3064 3064 3065 3065
3105 3104 3104 3105 3105 3105 3105 3105 3104 3104 3104 3103 3103 3102 3102 3103 3101 3101 3099 3097 3097 3092 3086 3086 3092 3089 3069 3058 3067 3070 3070 3072 3071 3073 3076 3077 3079 3080 3079 3079 3078 3076 3074 3072 3071 3069 3069 3067 3065 3064 3064 3064 3061 3058 3057 3056 3055 3055 3055 3055 3056 3056 3056 3055 3054 3054 3053 3053 3053 3053 3052 3052 3052 3052 3053 3053 3054 3054 3055 3056 3057 3058 3058 3059 3060 3061
3101 3100 3100 3100 3102 3103 3103 3102 3101 3101 3101 3100 3101 3099 3099 3100 3098 3099 3096 3095 3098 3089 3081 3082 3087 3089 3075 3059 3062 3067 3067 3069 3069 3071 3074 3074 3076 3077 3076 3076 3074 3073 3071 3070 3069 3067 3065 3064 3062 3061 3061 3061 3058 3056 3054 3052 3051 3050 3049 3050 3050 3050 3050 3050 3050 3050 3050 3049 3049 3049 3048 3047 3047 3047 3048 3049 3050 3051 3051 3051 3052 3053 3054 3054 3055 3056
3098 3097 3096 3096 3098 3099 3099 3098 3098 3098 3098 3097 3097 3096 3097 3097 3095 3096 3094 3095 3096 3085 3078 3080 3082 3087 3076 3059 3061 3066 3065 3067 3068 3069 3071 3072 3073 3074 3073 3072 3069 3068 3068 3067 3066 3063 3061 3060 3059 3058 3057 3057 3056 3054 3051 3050 3049 3047 3046 3046 3045 3044 3044 3044 3044 3045 3045 3045 3045 3044 3044 3043 3042 3042 3043 3044 3045 3046 3047 3048 3048 3049 3049 3050 3051 3051
3093 3093 3094 3094 3094 3095 3095 3095 3094 3095 3095 3094 3094 3094 3096 3096 3095 3094 3093 3094 3091 3082 3077 3079 3080 3080 3067 3055 3060 3064 3064 3066 3067 3067 3068 3069 3071 3070 3069 3066 3064 3064 3062 3061 3060 3058 3057 3056 3055 3054 3053 3053 3053 3051 3049 3047 3046 3045 3045 3044 3042 3041 3040 3039 3039 3038 3039 3039 3040 3040 3040 3039 3039 3038 3039 3039 3040 3041 3042 3043 3044 3044 3045 3045 3046 3047
3089 3088 3090 3090 3090 3091 3091 3091 3091 3091 3091 3090 3090 3091 3093 3093 3093 3092 3092 3091 3086 3078 3076 3078 3079 3073 3060 3053 3057 3060 3061 3063 3063 3065 3066 3066 3067 3066 3063 3062 3060 3059 3057 3056 3055 3054 3053 3052 3051 3050 3049 3050 3049 3048 3046 3045 3044 3044 3043 3042 3040 3039 3038 3037 3036 3035 3034 3034 3035 3035 3036 3036 3036 3036 3036 3036 3036 3037 3037 3038 3039 3040 3040 3041 3041 3042
3085 3082 3083 3086 3087 3087 3087 3088 3089 3088 3087 3086 3086 3087 3086 3086 3088 3087 3085 3083 3078 3075 3076 3077 3075 3067 3057 3053 3054 3056 3058 3059 3060 3062 3061 3061 3062 3060 3058 3057 3055 3054 3053 3052 3052 3050 3050 3049 3047 3047 3047 3046 3046 3045 3044 3043 3043 3043 3041 3040 3039 3039 3038 3036 3035 3034 3033 3033 3032 3032 3032 3032 3032 3031 3032 3032 3032 3033 3033 3033 3034 3034 3035 3036 3037 3038
3082 3078 3079 3082 3082 3083 3084 3084 3085 3084 3082 3082 3082 3082 3080 3081 3083 3080 3077 3075 3075 3074 3073 3071 3066 3059 3054 3052 3052 3054 3056 3057 3058 3056 3054 3055 3055 3053 3052 3051 3050 3050 3049 3049 3049 3048 3047 3046 3045 3045 3044 3043 3043 3041 3041 3041 3042 3041 3039 3039 3038 3038 3037 3036 3035 3034 3033 3032 3031 3030 3030 3029 3028 3027 3027 3026 3026 3027 3028 3028 3028 3029 3030 3031 3031 3032
3079 3075 3077 3077 3076 3079 3080 3080 3081 3080 3078 3077 3077 3077 3077 3079 3079 3076 3073 3073 3074 3071 3066 3064 3059 3054 3054 3051 3050 3052 3054 3054 3052 3049 3049 3049 3047 3047 3047 3047 3047 3047 3047 3046 3046 3045 3044 3043 3042 3042 3041 3040 3040 3039 3038 3038 3040 3039 3038 3037 3037 3036 3035 3034 3033 3032 3032 3031 3029 3029 3028 3027 3026 3025 3023 3022 3022 3021 3021 3022 3022 3023 3024 3025 3026 3027
3076 3072 3073 3074 3073 3075 3077 3077 3077 3075 3074 3074 3074 3075 3076 3075 3075 3074 3073 3072 3072 3067 3061 3059 3055 3054 3054 3049 3047 3051 3052 3047 3044 3043 3044 3043 3043 3044 3044 3044 3045 3044 3043 3042 3042 3041 3040 3039 3039 3038 3037 3037 3036 3035 3035 3035 3036 3036 3036 3035 3034 3033 3032 3031 3030 3030 3029 3029 3028 3027 3026 3025 3024 3023 3021 3020 3019 3018 3018 3018 3018 3018 3019 3020 3021 3022
3075 3070 3069 3071 3070 3070 3072 3073 3072 3070 3071 3071 3071 3072 3073 3071 3070 3071 3071 3070 3068 3063 3057 3054 3052 3052 3051 3047 3046 3048 3047 3041 3038 3038 3039 3039 3041 3043 3042 3043 3042 3041 3040 3038 3036 3036 3035 3034 3033 3033 3032 3032 3032 3031 3031 3031 3031 3031 3031 3031 3031 3030 3029 3028 3027 3027 3026 3026 3025 3025 3025 3024 3022 3021 3019 3017 3016 3015 3015 3015 3015 3015 3014 3015 3015 3016
3073 3069 3066 3067 3069 3067 3067 3068 3066 3066 3067 3068 3068 3068 3068 3067 3066 3066 3065 3064 3062 3057 3054 3052 3048 3046 3047 3046 3045 3043 3041 3039 3035 3033 3034 3036 3037 3038 3039 3039 3039 3038 3037 3035 3034 3033 3031 3030 3029 3028 3027 3027 3027 3027 3026 3026 3026 3026 3026 3026 3026 3026 3025 3024 3023 3023 3022 3022 3022 3022 3022 3022 3021 3019 3017 3014 3013 3012 3011 3011 3012 3012 3012 3012 3012 3012
3070 3068 3063 3064 3066 3064 3061 3061 3061 3063 3064 3064 3063 3063 3063 3062 3062 3061 3059 3057 3056 3052 3050 3048 3043 3041 3044 3043 3040 3037 3037 3037 3033 3030 3030 3031 3032 3033 3033 3034 3034 3034 3033 3032 3031 3030 3029 3028 3027 3026 3025 3023 3023 3022 3022 3022 3021 3021 3021 3020 3020 3020 3019 3019 3018 3017 3017 3017 3017 3018 3018 3018 3018 3017 3015 3012 3010 3009 3008 3007 3007 3008 3008 3009 3009 3010
3067 3064 3060 3059 3060 3057 3056 3057 3058 3059 3060 3059 3058 3058 3058 3058 3059 3057 3052 3051 3050 3046 3045 3043 3036 3036 3040 3038 3034 3033 3033 3033 3031 3030 3028 3027 3027 3027 3027 3027 3028 3028 3028 3027 3026 3025 3025 3025 3024 3024 3023 3021 3020 3019 3019 3019 3018 3017 3017 3016 3015 3014 3013 3013 3012 3011 3011 3011 3011 3012 3013 3013 3013 3013 3011 3009 3007 3005 3004 3003 3003 3003 3003 3004 3005 3006
3064 3061 3056 3052 3052 3051 3052 3056 3056 3054 3054 3054 3053 3053 3054 3054 3054 3052 3047 3045 3044 3040 3039 3038 3031 3029 3033 3032 3030 3029 3028 3027 3027 3026 3025 3024 3023 3022 3022 3021 3021 3022 3022 3022 3021 3020 3020 3019 3019 3019 3019 3018 3017 3015 3014 3014 3013 3012 3011 3010 3009 3008 3007 3006 3006 3006 3005 3005 3006 3006 3006 3007 3007 3007 3006 3004 3003 3001 3000 2999 2999 2999 2998 2999 2999 3000
3059 3056 3052 3047 3046 3047 3048 3050 3050 3049 3049 3048 3047 3049 3050 3048 3048 3045 3041 3040 3037 3034 3036 3034 3026 3024 3026 3026 3025 3024 3024 3024 3024 3024 3023 3021 3020 3019 3018 3017 3016 3016 3016 3016 3015 3015 3014 3013 3013 3013 3013 3013 3012 3011 3010 3008 3007 3005 3004 3003 3002 3001 3000 3000 2999 2999 2999 2999 3000 3000 3000 3000 3000 3000 2999 2998 2997 2996 2995 2994 2994 2994 2993 2993 2993 2994
3053 3051 3050 3046 3044 3043 3043 3045 3044 3044 3044 3042 3041 3043 3043 3042 3042 3040 3036 3035 3031 3029 3031 3028 3021 3021 3023 3022 3021 3022 3021 3021 3021 3021 3021 3019 3018 3016 3014 3012 3011 3009 3009 3009 3009 3008 3008 3007 3006 3005 3005 3004 3004 3004 3004 3003 3001 2999 2997 2996 2994 2993 2993 2992 2992 2992 2992 2992 2992 2992 2992 2992 2992 2992 2991 2991 2990 2989 2989 2989 2989 2989 2988 2988 2988 2988
3048 3046 3047 3045 3042 3040 3040 3040 3040 3039 3039 3037 3037 3038 3038 3037 3037 3035 3033 3032 3027 3024 3025 3022 3018 3019 3021 3020 3019 3020 3019 3018 3017 3017 3016 3016 3015 3013 3011 3009 3006 3004 3003 3003 3002 3001 3001 3000 2999 2998 2997 2996 2996 2995 2995 2995 2994 2993 2992 2990 2989 2987 2986 2985 2985 2985 2984 2984 2983 2984 2984 2984 2984 2983 2983 2983 2983 2982 2982 2983 2983 2983 2983 2983 2983 2983
3043 3041 3042 3041 3038 3037 3036 3036 3037 3037 3035 3033 3033 3033 3033 3033 3032 3032 3030 3026 3023 3021 3018 3018 3016 3015 3016 3016 3015 3014 3014 3013 3013 3012 3012 3012 3011 3009 3008 3006 3003 3001 2999 2998 2997 2995 2994 2993 2993 2992 2991 2990 2989 2988 2987 2986 2985 2985 2985 2984 2984 2983 2981 2979 2979 2978 2977 2976 2975 2975 2975 2975 2976 2975 2974 2974 2974 2975 2975 2976 2976 2976 2976 2976 2976 2977
3040 3036 3037 3036 3034 3033 3033 3032 3033 3033 3030 3029 3029 3028 3028 3028 3027 3027 3022 3019 3021 3018 3011 3012 3014 3010 3009 3011 3009 3008 3008 3007 3007 3007 3006 3006 3005 3003 3002 3001 3000 2998 2996 2994 2992 2991 2989 2988 2986 2986 2985 2984 2983 2983 2982 2981 2980 2979 2978 2977 2977 2977 2976 2975 2973 2972 2971 2970 2969 2968 2967 2967 2967 2967 2967 2966 2966 2966 2967 2968 2968 2968 2968 2969 2969 2970
3036 3031 3031 3031 3029 3029 3029 3027 3028 3027 3024 3024 3023 3022 3022 3022 3021 3019 3015 3014 3018 3013 3006 3008 3010 3005 3004 3005 3003 3002 3002 3001 3001 3001 3000 2999 2998 2997 2996 2995 2994 2992 2991 2989 2987 2985 2984 2982 2980 2979 2978 2977 2977 2976 2976 2976 2975 2974 2973 2972 2971 2970 2970 2969 2968 2967 2965 2964 2963 2961 2960 2960 2960 2959 2959 2958 2958 2959 2959 2959 2960 2960 2960 2961 2961 2962
3031 3026 3026 3026 3023 3023 3024 3023 3022 3022 3019 3018 3018 3017 3017 3015 3013 3012 3010 3010 3011 3006 3004 3005 3003 2999 3000 2999 2997 2996 2995 2995 2994 2994 2994 2993 2992 2991 2991 2990 2988 2987 2985 2983 2981 2979 2978 2976 2974 2973 2971 2971 2970 2970 2970 2969 2969 2969 2968 2967 2966 2966 2965 2964 2963 2962 2960 2958 2957 2955 2954 2954 2953 2952 2951 2950 2950 2951 2951 2951 2951 2952 2952 2952 2953 2954
3027 3023 3022 3022 3019 3017 3018 3018 3017 3017 3015 3012 3012 3012 3011 3009 3007 3007 3006 3005 3004 3001 3000 3001 2997 2994 2994 2993 2991 2991 2990 2989 2989 2988 2988 2988 2987 2986 2985 2984 2983 2982 2980 2979 2977 2975 2973 2972 2970 2968 2967 2966 2965 2964 2963 2962 2962 2962 2962 2962 2962 2961 2960 2959 2958 2956 2955 2953 2951 2949 2948 2947 2947 2946 2945 2944 2943 2943 2943 2944 2943 2943 2943 2944 2945 2945
3023 3020 3018 3019 3014 3010 3012 3013 3012 3012 3010 3007 3006 3006 3004 3003 3002 3001 3001 3001 3000 2996 2995 2994 2990 2988 2989 2988 2987 2986 2985 2985 2985 2984 2984 2983 2982 2981 2980 2979 2979 2977 2976 2974 2973 2971 2969 2968 2966 2964 2962 2961 2960 2958 2957 2955 2955 2955 2955 2955 2955 2955 2954 2953 2952 2950 2949 2948 2946 2945 2943 2941 2940 2939 2939 2938 2937 2936 2936 2936 2935 2935 2935 2935 2935 2935
3019 3017 3015 3016 3009 3003 3007 3009 3006 3007 3004 2997 2997 2999 2998 2998 2997 2996 2995 2996 2995 2992 2989 2986 2984 2983 2984 2983 2982 2981 2981 2980 2980 2980 2979 2978 2978 2977 2976 2975 2974 2973 2971 2970 2968 2967 2965 2963 2961 2960 2958 2956 2955 2953 2951 2950 2948 2947 2946 2946 2946 2946 2946 2945 2944 2943 2942 2942 2941 2939 2938 2936 2934 2933 2932 2931 2929 2928 2928 2927 2927 2926 2926 2925 2925 2925
3014 3013 3012 3012 3005 3000 3003 3005 3002 3001 2993 2986 2990 2995 2993 2992 2992 2990 2989 2989 2988 2986 2983 2981 2980 2980 2980 2979 2978 2977 2976 2976 2976 2976 2975 2974 2973 2972 2971 2971 2970 2968 2967 2965 2964 2962 2960 2958 2956 2954 2953 2951 2950 2948 2946 2944 2943 2941 2939 2938 2937 2937 2936 2935 2935 2934 2933 2934 2934 2933 2932 2930 2928 2927 2925 2923 2922 2920 2919 2918 2918 2917 2916 2916 2916 2915
3009 3009 3007 3006 3002 2997 2999 3002 2998 2989 2981 2981 2986 2989 2987 2986 2986 2985 2983 2982 2981 2980 2978 2978 2977 2976 2975 2974 2973 2972 2971 2971 2972 2972 2970 2969 2969 2968 2967 2966 2965 2964 2962 2960 2959 2957 2955 2952 2950 2949 2947 2946 2944 2942 2940 2938 2937 2936 2934 2932 2930 2929 2928 2926 2926 2925 2924 2924 2924 2924 2923 2922 2921 2920 2918 2916 2913 2912 2910 2909 2908 2908 2907 2907 2906 2905
3005 3005 3002 3000 2998 2994 2995 2996 2989 2978 2976 2980 2982 2982 2981 2981 2981 2980 2977 2975 2975 2975 2974 2974 2974 2973 2972 2970 2969 2968 2968 2967 2968 2968 2966 2965 2964 2964 2963 2962 2961 2959 2957 2956 2954 2952 2949 2947 2945 2943 2941 2940 2938 2937 2934 2932 2930 2929 2928 2927 2925 2923 2921 2919 2918 2916 2915 2915 2914 2913 2912 2911 2911 2910 2909 2907 2905 2903 2902 2901 2900 2899 2898 2897 2897 2896
3000 3000 2998 2995 2993 2990 2988 2985 2980 2975 2974 2976 2976 2977 2978 2977 2977 2975 2971 2970 2971 2971 2970 2971 2971 2969 2968 2967 2965 2965 2964 2963 2964 2964 2963 2960 2959 2959 2958 2956 2955 2954 2952 2951 2949 2946 2944 2942 2940 2938 2936 2935 2934 2932 2929 2926 2924 2922 2921 2920 2918 2916 2914 2913 2911 2909 2907 2906 2905 2903 2902 2900 2899 2899 2899 2898 2897 2895 2894 2893 2892 2892 2890 2889 2888 2888
2993 2993 2993 2990 2987 2986 2984 2981 2978 2975 2971 2970 2972 2974 2974 2973 2973 2971 2968 2967 2969 2968 2967 2967 2967 2966 2965 2964 2963 2961 2960 2958 2958 2960 2959 2956 2954 2954 2952 2951 2950 2949 2947 2946 2944 2942 2941 2939 2937 2935 2933 2931 2929 2927 2924 2920 2917 2915 2913 2912 2911 2909 2907 2905 2903 2901 2899 2897 2895 2894 2892 2891 2889 2888 2888 2888 2887 2887 2886 2886 2885 2883 2882 2881 2880 2880
2988 2987 2988 2986 2982 2983 2982 2978 2975 2972 2968 2968 2971 2972 2971 2971 2970 2969 2967 2965 2965 2965 2965 2964 2964 2963 2962 2961 2959 2957 2957 2955 2954 2956 2956 2952 2950 2949 2948 2947 2946 2945 2944 2943 2940 2938 2937 2935 2932 2931 2929 2926 2924 2923 2919 2915 2912 2909 2906 2904 2903 2901 2900 2898 2895 2893 2891 2889 2887 2885 2883 2882 2880 2879 2878 2877 2877 2877 2877 2877 2876 2875 2874 2873 2872 2871
2984 2983 2983 2981 2979 2979 2978 2974 2970 2968 2967 2967 2969 2970 2970 2968 2968 2968 2966 2962 2961 2962 2962 2961 2961 2960 2958 2957 2956 2954 2953 2951 2950 2951 2952 2949 2947 2946 2945 2943 2942 2940 2939 2938 2936 2934 2931 2929 2927 2925 2923 2921 2919 2916 2913 2909 2906 2903 2900 2897 2895 2893 2892 2889 2887 2885 2883 2881 2879 2877 2876 2874 2872 2870 2869 2868 2867 2867 2867 2867 2866 2866 2865 2864 2863 2863
2980 2980 2979 2977 2975 2975 2974 2970 2966 2964 2965 2966 2967 2968 2968 2966 2965 2964 2962 2959 2960 2960 2959 2958 2957 2956 2955 2954 2952 2950 2949 2948 2946 2946 2946 2945 2943 2941 2940 2939 2937 2936 2934 2932 2931 2929 2926 2923 2921 2919 2918 2916 2913 2910 2907 2902 2899 2896 2893 2890 2888 2886 2883 2880 2878 2876 2874 2873 2871 2870 2868 2867 2864 2862 2861 2860 2858 2857 2857 2857 2856 2855 2855 2855 2854 2854
2977 2977 2975 2973 2972 2971 2969 2967 2963 2961 2961 2964 2965 2964 2964 2962 2960 2959 2958 2958 2958 2957 2956 2955 2954 2952 2951 2949 2948 2946 2945 2944 2943 2941 2941 2940 2938 2936 2935 2934 2932 2931 2930 2928 2926 2923 2919 2917 2915 2913 2912 2911 2908 2904 2901 2896 2892 2889 2886 2883 2881 2879 2875 2871 2869 2866 2865 2864 2863 2861 2860 2859 2857 2855 2853 2852 2851 2848 2847 2847 2847 2846 2845 2844 2844 2844
2974 2973 2971 2969 2968 2967 2965 2964 2961 2958 2958 2960 2961 2960 2959 2958 2956 2956 2957 2957 2956 2954 2953 2951 2950 2949 2947 2945 2943 2942 2940 2939 2938 2937 2935 2934 2933 2932 2930 2929 2926 2925 2924 2922 2920 2917 2913 2909 2908 2906 2905 2904 2901 2898 2894 2889 2885 2882 2879 2876 2875 2871 2866 2862 2859 2857 2855 2855 2853 2852 2851 2849 2848 2847 2845 2844 2843 2840 2838 2838 2838 2837 2836 2835 2834 2833
2970 2969 2966 2964 2964 2964 2960 2957 2956 2955 2956 2957 2957 2956 2956 2955 2954 2954 2954 2952 2951 2950 2949 2947 2945 2944 2942 2940 2939 2938 2936 2935 2934 2932 2931 2929 2928 2926 2925 2923 2921 2918 2916 2915 2913 2910 2906 2902 2900 2898 2897 2895 2894 2891 2887 2882 2877 2873 2871 2869 2867 2862 2857 2853 2849 2847 2845 2845 2843 2843 2841 2839 2838 2838 2836 2835 2834 2831 2830 2830 2829 2828 2827 2826 2824 2823
2963 2964 2962 2959 2959 2959 2956 2952 2952 2953 2954 2953 2952 2952 2953 2953 2952 2952 2949 2947 2946 2946 2944 2942 2940 2940 2938 2936 2934 2932 2931 2930 2928 2927 2925 2924 2922 2921 2919 2917 2915 2912 2909 2908 2906 2903 2899 2895 2892 2890 2888 2887 2886 2883 2879 2874 2868 2864 2862 2860 2857 2852 2847 2842 2839 2836 2834 2833 2832 2831 2830 2829 2827 2827 2826 2825 2824 2822 2820 2820 2819 2818 2818 2817 2816 2815
2958 2959 2959 2955 2954 2954 2950 2947 2949 2950 2949 2949 2949 2948 2948 2948 2947 2947 2945 2942 2941 2940 2939 2937 2935 2934 2933 2931 2928 2927 2926 2925 2923 2922 2920 2918 2917 2916 2913 2911 2909 2906 2903 2901 2899 2895 2892 2888 2885 2882 2879 2878 2877 2875 2870 2866 2861 2855 2852 2849 2845 2840 2835 2831 2828 2826 2824 2822 2820 2818 2817 2816 2815 2815 2814 2813 2813 2811 2810 2810 2809 2808 2808 2808 2807 2806
2952 2954 2953 2950 2950 2948 2943 2941 2944 2946 2943 2944 2944 2943 2943 2943 2942 2942 2940 2937 2936 2935 2933 2932 2930 2929 2928 2926 2923 2922 2921 2920 2918 2916 2915 2913 2911 2910 2907 2904 2902 2900 2897 2894 2891 2887 2884 2881 2878 2875 2871 2868 2868 2865 2861 2856 2853 2848 2843 2837 2832 2828 2823 2820 2816 2813 2811 2809 2807 2804 2803 2801 2800 2800 2800 2800 2800 2798 2798 2798 2798 2797 2797 2798 2798 2797
2947 2947 2946 2944 2944 2942 2937 2936 2939 2940 2938 2938 2938 2937 2938 2938 2937 2936 2934 2932 2930 2929 2928 2926 2925 2923 2922 2921 2919 2917 2916 2915 2913 2910 2909 2908 2906 2904 2901 2898 2895 2893 2890 2887 2884 2880 2877 2873 2869 2866 2862 2859 2857 2855 2850 2846 2843 2838 2832 2825 2820 2815 2810 2808 2805 2801 2797 2795 2792 2789 2788 2786 2784 2784 2784 2784 2785 2785 2785 2785 2786 2785 2785 2787 2788 2787
2943 2941 2939 2939 2938 2935 2932 2932 2934 2934 2932 2932 2933 2932 2932 2932 2930 2929 2928 2926 2925 2924 2923 2922 2920 2918 2917 2916 2914 2912 2911 2910 2908 2905 2903 2902 2900 2897 2894 2891 2889 2886 2883 2880 2877 2873 2869 2865 2861 2856 2852 2849 2846 2842 2838 2834 2831 2826 2818 2811 2805 2801 2797 2794 2791 2787 2783 2781 2778 2775 2773 2771 2769 2768 2767 2767 2768 2770 2771 2772 2772 2772 2772 2775 2777 2777
2938 2935 2935 2936 2932 2927 2926 2928 2930 2929 2926 2925 2927 2927 2926 2926 2924 2923 2922 2921 2919 2918 2917 2917 2916 2914 2912 2911 2909 2907 2906 2905 2903 2899 2897 2896 2894 2891 2888 2885 2882 2879 2876 2873 2869 2866 2862 2857 2852 2847 2843 2839 2835 2830 2825 2821 2816 2811 2803 2795 2789 2785 2782 2778 2774 2770 2768 2766 2763 2760 2758 2755 2753 2752 2751 2750 2751 2753 2755 2757 2759 2759 2759 2762 2766 2768
2932 2930 2932 2932 2927 2922 2921 2924 2926 2924 2921 2920 2921 2921 2919 2919 2918 2917 2916 2915 2914 2913 2912 2911 2910 2909 2908 2906 2904 2902 2900 2899 2897 2894 2892 2890 2888 2885 2882 2878 2875 2871 2869 2865 2861 2856 2853 2849 2844 2839 2834 2829 2824 2818 2812 2806 2800 2794 2786 2780 2774 2769 2765 2761 2757 2754 2752 2750 2747 2745 2743 2740 2738 2737 2736 2736 2736 2736 2737 2740 2744 2746 2747 2749 2752 2756